Location: Puidoux
(46.5009°N, 6.7825°E)
Time: 15:56:05
(UTC+00:00)

Daily predictions for brighter satellites

Satellite Brightness Start Highest point End
(mag) Time Altitude Azimuth Time Altitude Azimuth Time Altitude Azimuth
NOAA 6 4.4 16:13:17 10° SE 16:18:04 41° ENE 16:22:53 10° N
Cosmos 1833 Rocket 2.9 16:15:28 10° SSW 16:21:04 76° WNW 16:26:44 10° NNE
Cosmos 1933 3.3 16:17:13 10° S 16:21:13 66° E 16:25:13 10° NNE
Cosmos 1805 Rocket 3.5 16:17:37 10° N 16:21:56 65° ENE 16:26:15 10° SSE
Cosmos 2278 3.9 16:16:45 10° NNW 16:22:19 50° ENE 16:27:49 10° SE
NOAA 11 4.4 16:18:10 10° S 16:23:35 79° WSW 16:29:04 10° NNW
Cosmos 1602 3.7 16:20:58 10° N 16:24:50 71° E 16:28:42 10° SSE
USA 305 3.7 16:24:56 10° NW 16:28:49 33° NNE 16:32:43 10° ENE
CZ-2C R/B 4.0 16:27:11 10° NE 16:30:40 18° E 16:34:07 10° SE
SL-24 R/B - RUBIN 2 3.7 16:27:09 10° NW 16:31:40 81° WSW 16:35:58 10° SSE
Meteor 1-25 Rocket 4.4 16:26:06 10° NNW 16:31:42 82° W 16:37:20 10° S
CZ-4B R/B 2.7 16:28:37 10° SSE 16:32:34 85° ENE 16:36:21 10° NNW
Cosmos 1500 3.1 16:31:24 10° N 16:35:06 59° E 16:38:47 10° SSE
Cosmos 44 Rocket 3.6 16:31:36 10° NNW 16:36:21 45° NE 16:40:57 10° ESE
COSMOS 2406 3.5 16:34:58 10° SW 16:40:43 71° WNW 16:46:27 10° NNE
Cosmos 1814 Rocket 4.2 16:36:37 10° S 16:41:40 54° ESE 16:46:43 10° NNE
Cosmos 921 Rocket 4.1 16:39:42 10° SSE 16:43:03 23° E 16:45:57 12° NE
Cosmos 1570 Rocket 4.2 16:43:28 10° S 16:48:33 54° ESE 16:53:38 10° NNE
Cosmos 1092 Rocket 4.4 16:47:00 10° NNW 16:53:20 72° W 16:59:36 10° S
CZ-4B R/B 3.6 16:48:30 10° SE 16:53:22 36° ENE 16:58:12 10° N
Cosmos 2298 Rocket 4.4 16:50:12 10° N 16:55:14 41° ENE 17:00:15 10° SE
CZ-2D R/B 3.5 16:51:55 10° SE 16:55:34 45° ENE 16:59:14 10° N
USA 267 3.3 16:50:26 12° NE 16:56:32 75° SE 17:03:04 10° SW
Meteor 2-21 4.5 16:50:51 10° N 16:56:58 85° W 17:03:00 10° S
ATLAS CENTAUR R/B 3.2 16:48:21 10° WSW 16:58:04 61° NW 17:01:31 15° NE
MOS 1-B 4.4 16:52:35 10° SE 16:58:11 54° ENE 17:03:48 10° N
Cosmos 1939 Rocket 3.1 16:54:08 10° S 16:58:13 77° WSW 17:02:18 10° NNW
Cosmos 1151 Rocket 3.0 16:56:47 10° S 17:01:04 64° E 17:05:24 10° NNE
USA 306 3.4 16:57:16 10° NW 17:01:19 41° NNE 17:03:51 20° E
Cosmos 1633 Rocket 3.0 16:57:43 10° N 17:02:05 61° ENE 17:06:26 10° SSE
COSMO-SKYMED 1 3.5 16:59:10 14° NE 17:02:05 28° E 17:05:49 10° SSE
Cosmos 1782 3.3 16:59:15 10° SSW 17:03:12 62° W 17:07:10 10° N
APEX 4.0 17:00:15 10° S 17:03:25 26° ESE 17:04:23 22° E
Cosmos 1666 2.5 17:00:07 10° N 17:03:50 71° E 17:07:32 10° SSE
Meteor 2-6 Rocket 4.4 16:58:36 10° SSE 17:04:06 51° E 17:09:29 10° NNE
Cosmos 2360 Rocket 3.2 17:01:23 10° N 17:05:57 24° NE 17:08:17 19° E
ISS -1.5 17:03:50 10° W 17:06:45 27° SW 17:09:40 10° SSE
Cosmos 1900 4.2 17:03:13 10° SSW 17:08:03 74° ESE 17:11:52 17° NE
PAYLOAD B 4.2 17:02:39 10° SSE 17:08:12 68° ENE 17:13:46 10° N
YAOGAN 1 4.5 17:11:21 13° NNE 17:11:21 13° NNE 17:12:13 10° NNE
Cosmos 1818 3.5 17:06:27 10° NW 17:11:59 82° NE 17:17:26 10° SE
CZ-2C R/B 3.6 17:13:36 10° SSW 17:16:18 16° S 17:18:56 10° SE
Cosmos 2279 Rocket 3.9 17:10:54 10° S 17:17:05 82° E 17:23:19 10° N
Cosmos 2142 Rocket 4.5 17:11:52 10° S 17:18:02 87° E 17:24:20 10° N
ATLAS 5 CENTAUR R/B 2.4 17:11:41 10° NW 17:18:29 42° NNE 17:19:39 30° ENE
Cosmos 841 Rocket 4.4 17:13:33 10° SW 17:18:31 47° WNW 17:23:30 10° NNE
ERBS 4.4 17:19:03 10° NNW 17:20:46 14° N 17:20:46 14° N
Cosmos 2266 Rocket 4.1 17:14:57 10° N 17:21:12 53° ENE 17:27:26 10° SSE
USA 307 3.2 17:17:50 10° NW 17:21:57 46° NNE 17:23:33 31° ENE
CZ-4C R/B 3.4 17:15:45 10° NW 17:23:02 69° SW 17:31:27 10° SSE
SL-08 RB Rocket 4.2 17:20:39 10° SE 17:24:50 35° ENE 17:29:01 10° N
Lacrosse 5 rocket 1.3 17:21:15 10° NW 17:25:11 77° SW 17:28:57 12° SE
Cosmos 2208 Rocket 4.1 17:22:25 10° SSW 17:27:50 89° WNW 17:32:51 13° NNE
ATLAS 2AS CENTAUR R/B 4.2 17:22:56 10° NW 17:28:33 22° N 17:31:18 18° NE
Cosmos 2322 Rocket 2.4 17:23:30 10° NNW 17:29:03 49° ENE 17:34:35 10° SE
Cosmos 1933 Rocket 3.8 17:25:01 10° N 17:29:11 43° ENE 17:33:18 10° SSE
COSMOS 2428 4.4 17:26:12 10° N 17:28:44 15° NNE 17:28:44 15° NNE
Tiangong 3.7 17:29:47 10° SSE 17:30:10 10° SSE 17:30:10 10° SSE
USA 234 3.2 17:23:42 10° ESE 17:30:15 87° NE 17:36:50 10° NW
Cosmos 2150 Rocket 3.9 17:25:43 10° NNW 17:30:55 73° ENE 17:36:09 10° SSE
Cosmos 1328 Rocket 3.5 17:26:41 10° S 17:31:08 87° W 17:35:36 10° N
Cosmos 1666 Rocket 4.3 17:27:15 10° NNW 17:31:35 54° W 17:35:51 10° S
Cosmos 1980 Rocket 3.8 17:26:53 10° NW 17:32:04 37° WSW 17:37:10 10° S
Cosmos 1470 Rocket 3.5 17:30:47 10° N 17:35:17 80° E 17:39:45 10° SSE
Cosmos 1544 2.9 17:31:46 10° N 17:35:22 62° E 17:38:58 10° SSE
Cosmos 1867 4.0 17:31:51 10° S 17:36:55 41° ESE 17:38:27 34° E
Cosmos 1812 3.9 17:33:23 10° SSW 17:37:03 42° WNW 17:40:44 10° N
Cosmos 1125 Rocket 3.4 17:31:52 10° NNW 17:37:09 76° ENE 17:42:25 10° SSE
X-37B 1.7 17:35:24 10° SW 17:37:49 30° SSE 17:37:49 30° SSE
H-2A R/B 2.2 17:33:16 10° S 17:38:23 74° WSW 17:43:25 10° NNW
DEBRIS 4.1 17:36:32 10° S 17:38:35 24° SE 17:38:35 24° SE
Okean O Rocket 1.5 17:35:46 10° SSE 17:40:10 68° ENE 17:44:37 10° N
Meteor 2-8 Rocket 4.4 17:34:53 10° S 17:41:03 87° W 17:47:16 10° N
Meteor 1-10 Rocket 4.1 17:35:28 10° S 17:41:12 75° E 17:46:51 10° NNE
GEOS 3 Rocket 4.4 17:41:55 31° NE 17:42:24 31° NE 17:46:55 10° NNW
Meteor 1-11 Rocket 3.6 17:36:47 10° N 17:42:27 67° ENE 17:48:11 10° SSE
USA 32 4.1 17:38:14 10° SSE 17:43:15 50° E 17:46:22 22° NNE
USA 308 2.9 17:40:30 10° NW 17:44:44 59° NNE 17:45:22 52° ENE
SL-16 R/B 2.1 17:44:00 10° NNW 17:49:43 88° ENE 17:55:23 10° SSE
ARGOS 3.1 17:44:49 10° SSE 17:50:15 85° ENE 17:55:40 10° NNW
SKYMED 2 3.4 17:47:47 25° NNE 17:50:20 87° ESE 17:54:41 10° SSW
Cosmos 2082 Rocket 3.6 17:46:48 10° WSW 17:51:59 35° NW 17:56:57 11° NNE
deb Chang Zheng 4 3.7 17:51:28 10° S 17:55:46 73° WSW 18:00:05 10° NNW
COSMOS 2455 4.3 17:55:18 10° WSW 18:00:36 31° NW 18:04:54 15° NNE
Feng Yun 1-1 Rocket 4.2 17:59:14 10° SSE 18:05:07 75° ENE 18:10:57 10° NNW
USA 305 2.8 18:04:48 10° WNW 18:08:52 81° NW 18:08:52 81° NW
Cosmos 2333 Rocket 3.2 18:04:15 10° NNW 18:08:05 31° NNE 18:08:05 31° NNE
Cosmos 1356 Rocket 3.8 18:05:46 10° NNW 18:09:56 65° W 18:14:10 10° S
CZ-2C R/B 2.9 18:06:50 13° N 18:11:26 65° WNW 18:16:32 10° SSW
Cosmos 2219 Rocket 3.6 18:12:15 10° NNW 18:15:05 24° N 18:15:05 24° N
Aureole 3 Rocket 3.5 18:12:54 10° S 18:17:28 89° W 18:24:01 10° N
Cosmos 1515 Rocket 4.3 18:14:00 10° SSW 18:18:20 52° WNW 18:20:27 27° NNW
Cosmos 921 Rocket 4.4 18:17:16 10° SW 18:21:07 35° WNW 18:22:47 25° NNW
Nadezhda 2 Rocket 4.5 18:18:21 10° N 18:24:23 61° ENE 18:24:23 61° ENE
Spot 2 4.4 18:23:28 50° SSE 18:24:52 89° WSW 18:29:58 10° NNW
COSMO-SKYMED 1 4.2 18:36:23 22° NNW 18:38:15 31° WNW 18:42:04 10° SW
USA 267 3.8 18:37:47 41° NNE 18:39:21 49° NNW 18:45:35 10° W
USA 306 4.3 18:37:09 10° WNW 18:39:52 36° W 18:39:52 36° W
Meteor 1-27 Rocket 4.3 18:38:56 10° SSW 18:44:20 54° WNW 18:46:30 34° NNW
Cosmos 2360 Rocket 2.4 18:44:51 10° NNW 18:50:08 67° W 18:50:08 67° W
CZ-2C R/B 4.1 18:52:31 10° SW 18:53:23 13° SW 18:53:23 13° SW
Lacrosse 5 rocket 4.3 19:02:06 10° W 19:03:44 12° WSW 19:04:39 11° SW
Cosmos 2322 Rocket 4.0 19:08:00 10° NW 19:12:50 29° WSW 19:17:09 12° SSW
NOSS 3-4 (A) 4.3 19:11:29 10° NW 19:16:19 49° NNW 19:16:19 49° NNW
NOSS 3-4 (C) 4.4 19:11:36 10° NW 19:16:24 49° NNW 19:16:24 49° NNW
ATLAS 2AS CENTAUR R/B 4.0 19:14:37 10° NNW 19:18:44 30° N 19:18:44 30° N
